Weather History for Frankfort, KY

Change the Weather History Date:

Wednesday, September 11, 2013

  Actual Average Record
Temperature  
Mean Temperature 79 °F 70 °F  
Max Temperature 89 °F 82 °F 99 °F (1964)
Min Temperature 69 °F 58 °F 42 °F (1917)
Degree Days  
Heating Degree Days 0 1  
Month to date heating degree days 0 2  
Since 1 July heating degree days 4 3  
Cooling Degree Days 14 5  
Month to date cooling degree days 108 73  
Year to date cooling degree days 1044 1075  
Growing Degree Days 28 (Base 50)    
Moisture  
Dew Point 70 °F    
Average Humidity 76    
Maximum Humidity 97    
Minimum Humidity 55    
Precipitation  
Precipitation 0.00 in 0.11 in 1.64 in (1955)
Month to date precipitation 0.05 1.27  
Year to date precipitation 35.11 32.58  
Sea Level Pressure  
Sea Level Pressure 30.12 in    
Wind  
Wind Speed 6 mph (SW)    
Max Wind Speed 16 mph    
Max Gust Speed 20 mph    
Visibility 8 miles    
Events      
T = Trace of Precipitation, MM = Missing Value Source: NWS Daily Summary

Daily Weather History Graph

Daily Weather History Graph

Search for Another Location

Airport:

Trip Planner

Search our weather history database for the weather conditions in past years. The results will help you decide how hot, cold, wet, or windy it might be!

Date:

Astronomy

Sep. 11, 2013 Rise Set
Actual Time 7:18 AM EDT 7:53 PM EDT
Civil Twilight 6:51 AM EDT 8:20 PM EDT
Nautical Twilight 6:20 AM EDT 8:51 PM EDT
Astronomical Twilight 5:47 AM EDT 9:23 PM EDT
Moon 1:39 PM EDT (9/11) 11:54 PM EDT (9/11)
Length of Visible Light 13h 28m
Length of Day
12h 35m
Waxing Crescent, 38% of the Moon is Illuminated
Sep 11
Waxing Crescent
Sep 12
First Quarter
Sep 19
Full
Sep 26
Last Quarter
Oct 4
New

Hourly Weather History & Observations

Time (EDT) Temp. Heat Index Dew Point Humidity Pressure Visibility Wind Dir Wind Speed Gust Speed Precip Events Conditions
12:53 AM 73.0 °F - 71.1 °F 93% 30.14 in 5.0 mi Calm Calm - N/A   Clear
1:53 AM 73.9 °F - 70.0 °F 87% 30.13 in 8.0 mi South 8.1 mph - N/A   Clear
2:53 AM 73.0 °F - 70.0 °F 90% 30.13 in 8.0 mi Calm Calm - N/A   Clear
3:53 AM 72.0 °F - 70.0 °F 93% 30.13 in 7.0 mi South 3.5 mph - N/A   Clear
4:53 AM 71.1 °F - 69.1 °F 93% 30.14 in 5.0 mi SW 3.5 mph - N/A   Clear
5:53 AM 70.0 °F - 68.0 °F 93% 30.14 in 5.0 mi Calm Calm - N/A   Clear
6:53 AM 69.1 °F - 68.0 °F 96% 30.15 in 4.0 mi Calm Calm - N/A   Clear
7:53 AM 71.1 °F - 70.0 °F 96% 30.17 in 4.0 mi South 5.8 mph - N/A   Clear
8:53 AM 73.9 °F - 71.1 °F 91% 30.18 in 5.0 mi SSW 5.8 mph - N/A   Partly Cloudy
9:53 AM 77.0 °F - 70.0 °F 79% 30.18 in 7.0 mi WSW 5.8 mph - N/A   Partly Cloudy
10:53 AM 81.0 °F 84.9 °F 71.1 °F 72% 30.17 in 8.0 mi WSW 6.9 mph - N/A   Mostly Cloudy
11:53 AM 84.0 °F 88.4 °F 70.0 °F 63% 30.16 in 9.0 mi WSW 6.9 mph - N/A   Mostly Cloudy
12:53 PM 84.9 °F 89.4 °F 70.0 °F 61% 30.15 in 8.0 mi SW 9.2 mph - N/A   Partly Cloudy
1:53 PM 84.0 °F 88.4 °F 70.0 °F 63% 30.13 in 8.0 mi WSW 8.1 mph - N/A   Partly Cloudy
2:53 PM 87.1 °F 92.0 °F 70.0 °F 57% 30.10 in 8.0 mi SW 10.4 mph - N/A   Clear
3:53 PM 88.0 °F 92.9 °F 70.0 °F 55% 30.08 in 8.0 mi Variable 5.8 mph - N/A   Clear
4:53 PM 88.0 °F 94.7 °F 72.0 °F 59% 30.06 in 8.0 mi SW 9.2 mph - N/A   Scattered Clouds
5:53 PM 87.1 °F 92.0 °F 70.0 °F 57% 30.07 in 8.0 mi SW 9.2 mph - N/A   Clear
6:53 PM 84.9 °F 90.7 °F 72.0 °F 65% 30.07 in 8.0 mi WSW 5.8 mph - N/A   Clear
7:53 PM 80.1 °F 83.2 °F 70.0 °F 71% 30.08 in 9.0 mi SSW 10.4 mph - N/A   Clear
8:53 PM 75.9 °F - 69.1 °F 79% 30.08 in 10.0 mi South 6.9 mph - N/A   Clear
9:53 PM 73.9 °F - 68.0 °F 82% 30.08 in 10.0 mi SW 8.1 mph - N/A   Clear
10:53 PM 72.0 °F - 68.0 °F 87% 30.07 in 10.0 mi SW 6.9 mph - N/A   Clear
11:53 PM 71.1 °F - 68.0 °F 90% 30.06 in 10.0 mi SW 4.6 mph - N/A   Clear